Location: Arrowhead Springs
(34.1867°N, 117.2617°W)
Time: 15:31:58
(UTC+00:00)

Cosmos 921 Rocket - Pass Details

Date: 13 April 2024
Orbit: 568 x 626 km, 75.8° (Epoch: 27 May)

Event Time Altitude Azimuth Distance (km) Brightness Sun altitude
Exits shadow 12:20:27 19° 247° (WSW) 1,391 4.2 -12.6°
Maximum altitude 12:22:28 28° 291° (WNW) 1,106 3.9 -12.2°
Drops below altitude 10° 12:26:09 10° 351° (N) 1,921 5.7 -11.5°
Sets 12:28:39 0° 3° (N) 2,837 6.8 -11.0°
